Regional Weather Roundup
Issued by NWS Midland/Odessa, TX

Skip options and go directly to product.
Home | Oldest Version | Previous Version | Current Version | All | Text Only | Save Text | Print | Product List | Glossary On

Skip product version selection by date and time.   
893
ASUS44 KMAF 311010
RWRMAF
MIDLAND AREA WEATHER ROUNDUP
NATIONAL WEATHER SERVICE MIDLAND TX
500 AM CDT FRI OCT 31 2014

...IN SOUTHWEST TEXAS AND SOUTHEAST NEW MEXICO...

CITY           SKY/WX    TMP DP  RH WIND       PRES   REMARKS
ALPINE         CLOUDY    59  53  79 NE8       30.37S
ANDREWS        FAIR      47  36  65 NE8       30.33S
ARTESIA        NOT AVBL
BIG SPRING     CLEAR     56  37  48 N5        30.34R
CARLSBAD       MOCLDY    57  42  57 CALM      30.34S
DRYDEN           N/A     67  59  75 N13       30.18R
FORT STOCKTON  CLOUDY    61  54  77 NE5       30.28R
GUAD PASS      PTCLDY    52  40  63 NE40G47   30.34S
HOBBS          CLEAR     45  34  65 N5        30.36S
MARFA          CLEAR     55  48  76 N17       30.32S
MIDLAND AIRPK  CLEAR     54  39  57 NE7       30.31F
MIDLAND INTL   CLEAR     52  38  58 NE9       30.30S
ODESSA         CLEAR     53  38  56 NE10      30.31S
PECOS          MOCLDY    58  50  72 N6        30.29S
PRESIDIO       FAIR      67  42  40 N13       30.19R
SEMINOLE       CLEAR     48  34  58 N6        30.36S
SNYDER         CLEAR     51  37  58 N8        30.32R
WINK           MOCLDY    57  39  51 N7        30.29R
$$
...OTHER STATIONS IN TEXAS...

CITY           SKY/WX    TMP DP  RH WIND       PRES   REMARKS
ABILENE        CLEAR     53  39  59 N8        30.29R
AMARILLO       CLEAR     41  30  65 NE8       30.39F WCI  36
AUSTIN         CLOUDY    61  60  97 NW5       30.17S
BROWNSVILLE    CLEAR     68  67  96 CALM      30.05S
CORPUS CHRISTI MOCLDY    69  67  93 CALM      30.06R
DALLAS FTW     CLEAR     56  41  57 N14       30.20R
DEL RIO        PTCLDY    69  60  73 NE9       30.11R
EL PASO        PTCLDY    59  47  64 E7        30.27R
HOUSTON INT    PTCLDY    57  54  89 CALM      30.10S
LUBBOCK        CLEAR     41  31  67 NE6       30.35S WCI  37
SAN ANGELO     PTCLDY    63  48  58 NE12      30.26R
SAN ANTONIO    TSTM      66  64  93 N10       30.17R
WACO           CLEAR     58  52  80 NW9       30.18R
WICHITA FALLS  NOT AVBL
$$
...OTHER LOCATIONS IN NEW MEXICO...

CITY           SKY/WX    TMP DP  RH WIND       PRES   REMARKS
ALAMAGORDO     NOT AVBL
ALBUQUERQUE    PTCLDY    54  24  31 E18       30.34S
CANNON AFB     CLEAR     43  28  56 NE8       30.39S WCI  38
CLOVIS         CLEAR     37  27  65 NE7       30.41S WCI  32
HOLLOMAN AFB   CLEAR     46  31  54 N9        30.26F
ROSWELL        CLEAR     46  33  60 W5        30.37R
RUIDOSO        PTCLDY    41  27  56 S5        30.47R WCI  38
SANTA FE       CLEAR     40  21  46 S8        30.41S WCI  34
TRUTH OR CONSE PTCLDY    48  27  44 NW7       30.29R
TUCUMCARI      CLEAR     40  27  59 N7        30.39S WCI  35
$$

USA.gov is the U.S. government's official web portal to all federal, state and local government web resources and services.